Regional Weather Roundup
Issued by NWS Northern Indiana

Home | Current Version | Previous Version | Text Only | Print | Product List | Glossary Off
Versions: 1 2 3 4 5 6 7 8 9 10 11 12 13 14 15 16 17 18 19 20 21 22 23 24 25 26 27 28 29 30 31 32 33 34 35 36 37 38 39 40 41 42 43 44 45 46 47 48 49 50

000
ASUS43 KIWX 280900
RWRIWX

KIWX WEATHER ROUNDUP
NATIONAL WEATHER SERVICE NORTHERN INDIANA
500 AM EDT SUN AUG 28 2016

NOTE: "FAIR" INDICATES FEW OR NO CLOUDS BELOW 12,000 FEET WITH NO
SIGNIFICANT WEATHER AND/OR OBSTRUCTIONS TO VISIBILITY.

* THESE STATIONS ARE NOT UNDER NWS QUALITY CONTROL. THEY ALSO MAY NOT
  REPORT WEATHER SUCH AS PRECIPITATION OR FOG.

INZ001>027-281000-
NORTHERN INDIANA

CITY           SKY/WX    TMP DP  RH WIND       PRES   REMARKS
KNOX*          MOCLDY    72  59  64 S5        30.14R
SOUTH BEND     CLOUDY    73  72  96 SW5       30.15R
GOSHEN         CLOUDY    73  70  90 SW6       30.15R
MONTICELLO*    CLOUDY    71  67  87 CALM      30.13S FOG
ANGOLA*        CLEAR     68  61  77 CALM      30.16R
FORT WAYNE     PTCLDY    68  66  93 S3        30.16R
PERU/GRISSOM   CLEAR     71  70  99 S6        30.13S

$$
INZ028>050-281000-
CENTRAL INDIANA

CITY           SKY/WX    TMP DP  RH WIND       PRES   REMARKS
LAFAYETTE      CLEAR     69  69 100 CALM      30.12S
KOKOMO*        PTCLDY    70  68  94 CALM      30.15S
MUNCIE*        PTCLDY    71  69  93 CALM      30.16S
INDIANAPOLIS   PTCLDY    73  71  93 CALM      30.14R

$$
MIZ043>046-050>051-056>058-064>065-071>073-077>080-281000-
SOUTHWEST LOWER MICHIGAN

CITY           SKY/WX    TMP DP  RH WIND       PRES   REMARKS
BATTLE CREEK   CLOUDY    69  69 100 S6        30.15R
BENTON HARBOR  MOCLDY    72  70  93 CALM      30.13R FOG
COLDWATER*     PTCLDY    72  71  99 SW5       30.15R
HILLSDALE*     PTCLDY    70  69  94 SW3       30.16R FOG
HOLLAND        CLOUDY    73  71  93 NW5       30.13R
GRAND RAPIDS   CLOUDY    73  70  90 W5        30.13R
KALAMAZOO      MOCLDY    72  69  90 SW5       30.14R
STURGIS*       MOCLDY    72  70  93 CALM      30.14S

$$
OHZ001>008-015>018-024>025-281000-
NORTHWEST OHIO

CITY           SKY/WX    TMP DP  RH WIND       PRES   REMARKS
DEFIANCE       CLEAR     70  68  93 CALM      30.15R FOG
FINDLAY        PTCLDY    68  65  90 SW3       30.15S
TOLEDO EXPRESS CLOUDY    68  68 100 SW3       30.14F FOG
TOLEDO METCALF CLEAR     69  68  96 S3        30.16R FOG
LIMA           CLEAR     67  67 100 CALM      30.17R

$$
AND FOR LAKE MICHIGAN COASTAL AND OPEN LAKE BUOY OBSERVATIONS

STATION/POSITION TEMP    WIND        PRES    VSBY  WAVE
                 AIR SEA DIR/SP/G                  HT/PER
                 (F)     (DEG/KT/KT) (MB)    (MI)  (FT/S)
CALUMET HARBOR    76     170/  3/  4 1019.3R
MICHIGAN CITY     75     180/  4/  4   N/A
BURNS HARBOR      75     200/  4/  9 1020.3R
SAINT JOSEPH      76     210/  4/  6 1020.3R
SOUTH LAKE BUOY   72 75  350/ 10/ 12 1019.0          1
4 MI NW BRIDGMAN  76 75  190/  6/ 10 1019.5R         1
MICHIGAN CITY     76 76  190/  4/  6   N/A           1

$$
&&




USA.gov is the U.S. government's official web portal to all federal, state and local government web resources and services.